TimeEAT,TemperatureF,Dew PointF,Humidity,Sea Level PressureIn,VisibilityMPH,Wind Direction,Wind SpeedMPH,Gust SpeedMPH,PrecipitationIn,Events,Conditions,WindDirDegrees,DateUTC
12:00 AM,78.8,75.2,89,29.92,6.2,SW,3.5,-,N/A,,Scattered Clouds,220,2012-11-28 21:00:00
1:00 AM,78.8,73.4,83,29.92,6.2,WSW,4.6,-,N/A,,Partly Cloudy,250,2012-11-28 22:00:00
2:00 AM,77.0,75.2,94,29.89,6.2,SSW,4.6,-,N/A,,Partly Cloudy,210,2012-11-28 23:00:00
3:00 AM,77.0,75.2,94,29.86,6.2,WSW,3.5,-,N/A,,Partly Cloudy,250,2012-11-29 00:00:00
4:00 AM,77.0,73.4,89,29.89,6.2,South,4.6,-,N/A,Rain,Light Rain Showers,180,2012-11-29 01:00:00
5:00 AM,75.2,73.4,94,29.89,6.2,Calm,Calm,-,N/A,,Partly Cloudy,0,2012-11-29 02:00:00
6:00 AM,75.2,73.4,94,29.89,6.2,Calm,Calm,-,N/A,,Partly Cloudy,0,2012-11-29 03:00:00
7:00 AM,77.0,75.2,94,29.92,6.2,WSW,5.8,-,N/A,,Scattered Clouds,250,2012-11-29 04:00:00
8:00 AM,78.8,75.2,89,29.92,6.2,WSW,5.8,-,N/A,,Partly Cloudy,250,2012-11-29 05:00:00
9:00 AM,82,77,80,29.95,19,SW,6.9,,,,Partly Cloudy,230,2012-11-29 06:00:00
9:00 AM,82.4,77.0,84,29.95,6.2,SW,6.9,-,N/A,,Scattered Clouds,230,2012-11-29 06:00:00
10:00 AM,86.0,75.2,70,29.95,6.2,SW,6.9,-,N/A,,Mostly Cloudy,220,2012-11-29 07:00:00
11:00 AM,86.0,73.4,66,29.92,6.2,South,10.4,-,N/A,,Mostly Cloudy,170,2012-11-29 08:00:00
12:00 PM,86.0,73.4,66,29.92,6.2,ESE,9.2,-,N/A,,Scattered Clouds,120,2012-11-29 09:00:00
1:00 PM,87.8,69.8,55,29.86,6.2,SE,10.4,-,N/A,,Scattered Clouds,140,2012-11-29 10:00:00
2:00 PM,87.8,73.4,62,29.86,6.2,SSE,10.4,-,N/A,,Scattered Clouds,160,2012-11-29 11:00:00
5:00 PM,86.0,71.6,62,29.80,6.2,SSE,6.9,-,N/A,,Partly Cloudy,150,2012-11-29 14:00:00
6:00 PM,84.2,73.4,70,29.83,6.2,SE,8.1,-,N/A,,Partly Cloudy,130,2012-11-29 15:00:00
7:00 PM,82.4,73.4,74,29.86,6.2,SSE,5.8,-,N/A,,Partly Cloudy,150,2012-11-29 16:00:00
8:00 PM,82.4,73.4,74,29.89,6.2,SE,5.8,-,N/A,,Scattered Clouds,140,2012-11-29 17:00:00
9:00 PM,80.6,75.2,84,29.89,6.2,South,4.6,-,N/A,,Mostly Cloudy,170,2012-11-29 18:00:00
10:00 PM,80.6,75.2,84,29.89,6.2,South,4.6,-,N/A,,Mostly Cloudy,170,2012-11-29 19:00:00
11:00 PM,80.6,73.4,79,29.92,6.2,South,3.5,-,N/A,,Scattered Clouds,170,2012-11-29 20:00:00